Regional Weather Roundup
Issued by NWS

Home | Current Version | Previous Version | Text Only | Print | Product List | Glossary Off
Versions: 1 2 3 4 5 6 7 8 9 10 11 12 13 14 15 16 17 18 19 20 21 22 23 24 25 26 27 28 29 30 31 32 33 34 35 36 37 38 39 40 41 42 43 44 45 46 47 48 49 50

000
ASUS43 KMPX 101910
RWRMN
WEATHER ROUNDUP FOR MINNESOTA
NATIONAL WEATHER SERVICE TWIN CITIES/CHANHASSEN MN
100 PM CST SUN DEC 10 2017


NOTE: "FAIR" INDICATES FEW OR NO CLOUDS BELOW 12,000 FEET WITH NO
SIGNIFICANT WEATHER AND/OR OBSTRUCTIONS TO VISIBILITY. N/A MEANS
CURRENT SKY AND/OR WEATHER CONDITIONS ARE NOT AVAILABLE.

MNZ060>063-068>070-102000-
   Twin Cities Metro

CITY           SKY/WX    TMP DP  RH WIND       PRES   REMARKS
TWIN CITIES    CLOUDY    29  22  75 NW12      30.02R WCI  19
ST PAUL        CLOUDY    28  21  75 NW13      30.04R WCI  17
CRYSTAL        CLOUDY    28  19  69 NW8       30.02R WCI  20
BLAINE         CLOUDY    30  21  69 NW9       30.01R WCI  22
LAKEVILLE      CLOUDY    27  23  86 NW13      30.01R WCI  16
EDEN PRAIRIE   CLOUDY    29  21  72 N13       30.02R WCI  19
SOUTH ST PAUL  CLOUDY    29  22  73 NW10      30.02R WCI  20
LAKE ELMO      CLOUDY    30  23  74 NW9       30.02R WCI  22
$$
MNZ001>005-007-008-013>017-022>024-027-028-102000-
   Northwest Minnesota

CITY           SKY/WX    TMP DP  RH WIND       PRES   REMARKS
BEMIDJI        CLOUDY    21  16  81 W6        29.99S WCI  13
HALLOCK        CLOUDY    23  19  86 CALM      30.03F
ROSEAU         SUNNY     21  16  79 CALM      30.01F
WARROAD        CLOUDY    21  16  79 CALM      30.02S
THIEF RVR FALL CLOUDY    21  18  86 CALM      30.03S
CROOKSTON      CLOUDY    21  19  93 NW5       30.06S WCI  15
FOSSTON        CLOUDY    21  16  79 W3        30.01S
DETROIT LAKES  CLOUDY    23  21  93 NW7       30.03R WCI  15
MOORHEAD       SUNNY     25  18  74 CALM      30.06S
PARK RAPIDS    PTSUNNY   24  17  74 NW6       29.98S WCI  17
MAHNOMEN       CLOUDY    21  18  86 W3        30.02S
$$
MNZ006-009>011-018-025>026-102000-
   North Central Minnesota

CITY           SKY/WX    TMP DP  RH WIND       PRES   REMARKS
BAUDETTE       CLOUDY    17  12  80 NW6       30.01R WCI   9
FLAG ISLAND    CLOUDY    18  12  79 CALM      30.01S
INTL FALLS     LGT SNOW  17   9  70 NW6       30.00R WCI   9
WASKISH        CLOUDY    19  16  86 W3        30.00S
BIG FORK       FLURRIES  19  12  73 N3        29.98S
GRAND RAPIDS   CLOUDY    21  15  78 NW10      30.00R WCI  10
ORR            CLOUDY    16   9  73 NW6       29.95S WCI   7
COOK           CLOUDY    18  10  73 W6        29.97S WCI   9
WALKER         CLOUDY    22  17  79 W3        29.99S
$$
MNZ012-019>021-037-102000-
   Northeast Minnesota

CITY           SKY/WX    TMP DP  RH WIND       PRES   REMARKS
DULUTH         MOSUNNY   19  12  74 N10       29.95R WCI   7
ELY            MOSUNNY   16   7  67 N7        29.95R WCI   6
HIBBING        LGT SNOW  17  11  77 NW9       29.97R WCI   6
EVELETH        FLURRIES  18   9  68 NW7       29.98R WCI   8
DULUTH HARBOR  PTSUNNY   25  16  68 W9        30.01S WCI  15
TWO HARBORS    PTSUNNY   25  12  58 NW8       29.95S WCI  16
G MARAIS ARPRT SUNNY     10   0  61 NW6       29.88S WCI   1
$$
MNZ029>031-032-039>041-046>048-054>057-064-102000-
   West Central Minnesota

CITY           SKY/WX    TMP DP  RH WIND       PRES   REMARKS
FERGUS FALLS   CLOUDY    27  19  74 N8        30.06F WCI  18
MORRIS         CLOUDY    30  21  69 NW14      30.03F WCI  20
ALEXANDRIA     CLOUDY    28  20  71 NW10      30.00F WCI  19
ELBOW LAKE     PTSUNNY   26  20  77 NW12      30.03F WCI  16
WADENA         CLOUDY    25  18  74 W6        30.00S WCI  18
GLENWOOD       CLOUDY    27  21  80 W8        30.00F WCI  18
BENSON         CLOUDY    32  23  69 N14       30.05S WCI  22
ORTONVILLE     SUNNY     36  25  64 NW9       30.04F
MADISON        MOSUNNY   37  27  65 NW13      30.05R
WILLMAR        FAIR      34  23  64 NW15      30.04R WCI  24
$$
MNZ033>034-036-042>043-049>051-058-059-102000-
   Central Minnesota

CITY           SKY/WX    TMP DP  RH WIND       PRES   REMARKS
ST CLOUD       CLOUDY    30  21  69 NW8       30.00F WCI  22
SAUK CENTRE    FAIR      28  20  73 W8        30.01S WCI  19
PAYNESVILLE    CLOUDY    30  23  75 NW10      30.02S WCI  21
AITKIN         CLOUDY    23  16  74 W6        29.98R WCI  16
PINE RIVER     CLOUDY    25  16  68 NW6       30.03R WCI  18
BRAINERD       CLOUDY    28  17  63 NW8       29.99S WCI  20
STAPLES        CLOUDY    27  18  69 NW7       30.00S WCI  19
LONG PRAIRIE   PTSUNNY   27  19  74 W7        30.01S WCI  19
LITTLE FALLS   CLOUDY    28  14  54 NW5       30.01S WCI  23
LITCHFIELD     MOSUNNY   30  23  74 NW5       30.01F WCI  25
BUFFALO        CLOUDY    30  21  69 NW6       30.03S WCI  24
MAPLE LAKE     CLOUDY    31  24  74 N6        30.02S WCI  25
HUTCHINSON     CLOUDY    31  24  74 NW10      30.02F WCI  23
$$
MNZ037-044-045-052-053-102000-
   East Central Minnesota

CITY           SKY/WX    TMP DP  RH WIND       PRES   REMARKS
PRINCETON      PTSUNNY   30  21  69 W7        30.01S WCI  23
MORA           CLOUDY    27  19  74 NW7       30.00F WCI  19
CAMBRIDGE      PTSUNNY   30  19  64 NW8       30.00S WCI  23
RUSH CITY      CLOUDY    28  19  68 NW7       30.00S WCI  20
MOOSE LAKE     CLOUDY    25  16  68 N6        29.96S WCI  18
HINCKLEY       CLOUDY    28  19  69 NW5       29.99R WCI  23
CLOQUET        CLOUDY    21  14  73 W9        29.96S WCI  11
MCGREGOR       CLOUDY    25  18  74 NW8       29.99R WCI  16
$$
MNZ071>073-080-081-089-090-097-098-102000-
   Southwest Minnesota

CITY           SKY/WX    TMP DP  RH WIND       PRES   REMARKS
MONTEVIDEO     SUNNY     36  25  64 N13       30.05R
GRANITE FALLS  MOSUNNY   36  26  65 NW16G22   30.06R
CANBY          PTSUNNY   39  28  64 W9        30.05S
MARSHALL       SUNNY     37  25  61 NW13      30.04S
REDWOOD FALLS  SUNNY     35  22  58 NW14      30.03S WCI  26
OLIVIA         SUNNY     34  27  75 NW14      30.01S WCI  24
PIPESTONE      SUNNY     37  27  65 NW10      30.03R
WINDOM         SUNNY     36  19  51 NW15      30.02S
WORTHINGTON    SUNNY     37  27  67 W12       30.03
JACKSON        SUNNY     36  27  69 MISG      30.02S
TRACY          SUNNY     37  28  68 NW14      30.03S
$$
MNZ065>067-074>077-082>085-091>093-102000-
   South Central Minnesota

CITY           SKY/WX    TMP DP  RH WIND       PRES   REMARKS
MANKATO        CLOUDY    28  23  81 NW15      30.03R WCI  16
NEW ULM        SUNNY     30  21  69 N14       30.02S WCI  20
ST JAMES       SUNNY     34  23  64 NW17G23   30.03S WCI  23
FAIRMONT       SUNNY     35  24  64 NW16      30.02S WCI  25
GLENCOE        CLOUDY    30  24  77 NW9       30.02R WCI  22
FARIBAULT      CLOUDY    30  23  74 NW9       30.01R WCI  22
WASECA         CLOUDY    30  23  74 W12       30.03R WCI  21
ALBERT LEA     CLOUDY    30  21  69 NW10      30.00R WCI  21
$$
MNZ078>079-086>088-094>096-102000-
   Southeast Minnesota

CITY           SKY/WX    TMP DP  RH WIND       PRES   REMARKS
ROCHESTER      CLOUDY    28  21  75 N14       29.97R WCI  17
RED WING       CLOUDY    28  18  64 N6        29.99S WCI  22
STANTON        CLOUDY    30  23  74 NW8       29.99R WCI  23
DODGE CENTER   CLOUDY    28  21  74 NW9       29.98R WCI  20
WINONA           N/A     30  21  69 N9        30.00R WCI  22
AUSTIN         CLOUDY    28  21  74 NW12      29.98S WCI  18
PRESTON        CLOUDY    27  20  75 NW13      29.97R WCI  17
$$
ABBREVIATIONS USED IN REMARKS
   TC - TEMPERATURES IN CELSIUS
  WCI - WIND CHILL INDEX
   HX - HEAT INDEX
  VSB - VISIBILITY
$$




USA.gov is the U.S. government's official web portal to all federal, state and local government web resources and services.